CZ-6A DEB

Satellite information

Favourite Embed

Satellite Type and Status

DEBRISIN ORBIT

Key statistics

Satellite CZ-6A DEB at a glance.

Uptime

912

Days in orbit

Revolutions

≈ 14.3

Per day

Orbit

SSO

Sun Synchronous Orbit

Inclination

98.8

Latest

Satellite identification and parameters

Extended collection of information and parameters for CZ-6A DEB.

Object identification

Identified? True

Debris? True

Object name: CZ-6A DEB

International designator: 2022-151AFP

Object number (NORAD): 56639

Object ID (CCSDS): 56639

Country: PEOPLES REPUBLIC OF CHINA (PRC)

Current information (Y/N): Y

RCS size: SMALL

Orbital parameters

Period: 100.818 minutes

Inclination: 98.7895 deg

SMA: 7175.478 km

Apoapsis: 827.192 km

Periapsis: 767.494 km

RAAN: 159.8261 deg

Eccentricy: 0.0041599

Argument of periapsis: 112.0571 deg

Mean anomaly: 248.5036 deg

Mean motion: 14.28323193 rev/day

Mean motion (dot): 0.00000424 rev/day2

B* drag term: 0.00018599 1/REarth

Two-line elements (TLE)

Creation date: May 9, 2025, 10:36 p.m.

Reference frame: TEME

Reference center: EARTH

Epoch: May 9, 2025, 8:44 p.m. UTC

TLE line 0: 0 CZ-6A DEB

TLE line 1: 1 56639U 22151AFP 25129.86441742 .00000424 00000-0 18599-3 0 9990

TLE line 2: 2 56639 98.7895 159.8261 0041599 112.0571 248.5036 14.28323193106757

Live tracking on map

Real-time ground track for satellite CZ-6A DEB.

In-orbit conjunctions

A list of the most updated potential collisions computed for object CZ-6A DEB.

Target Orbit TCA Probability of collision Miss distance Type
SL-3 R/B LEO 2024-10-29 15:20:47 0.0003594602 27.0 (m) ROCKET BODY

Associated space launch

Chinese satellite reported for atmospheric/ocean/environmental/spatial parameter research purposes, details TBD.

CZ-6A DEB was lifted into orbit during the mission ‘Long March 6A | Yunhai 3’, on board a Long March 6A space rocket.

The launch took place on Nov. 11, 2022, 10:52 p.m. from Launch Complex 9A.

For more information about the launch, click the button.

Launch to space Long March 6A | Yunhai 3
Long March 6A | Yunhai 3

Agency: N/A

Status: Launch Successful

Launch date: Nov. 11, 2022, 10:52 p.m. UTC

Rocket: Long March 6A

Launch pad: Launch Complex 9A

Location: Taiyuan Satellite Launch Center, People's Republic of China

...

Latest news about this satellite

There are no fresh news available about this satellite. Check back as we update our databases every day.


Newsletter sign-up

Weekly statistics, charts and insights to help you stay on top of the space industry.